Change the Weather History Date:

Thursday, October 4, 2007

  Actual Average Record
Temperature  
Mean Temperature 62 °F 66 °F  
Max Temperature 69 °F 76 °F 94 °F (1987)
Min Temperature 55 °F 56 °F 43 °F (1955)
Degree Days  
Heating Degree Days 4    
Month to date heating degree days  
Since 1 July heating degree days  
Cooling Degree Days 0    
Month to date cooling degree days  
Year to date cooling degree days  
Growing Degree Days 12 (Base 50)    
Moisture  
Dew Point 43 °F    
Average Humidity 56    
Maximum Humidity 72    
Minimum Humidity 33    
Precipitation  
Precipitation 0.00 in 0.01 in 0.29 in (2006)
Month to date precipitation 0.04  
Year to date precipitation 9.88  
Since 1 July precipitation 0.25  
Sea Level Pressure  
Sea Level Pressure 29.92 in    
Wind  
Wind Speed 5 mph (WNW)    
Max Wind Speed 15 mph    
Max Gust Speed 22 mph    
Visibility 10 miles    
Events      
T = Trace of Precipitation, MM = Missing Value Source: NWS Daily Summary

Daily Weather History Graph

Daily Weather History Graph

Search for Another Location

Airport or City:

Trip Planner

Search our weather history database for the weather conditions in past years. The results will help you decide how hot, cold, wet, or windy it might be!

Date:

Astronomy

Oct. 04, 2007 Rise Set
Actual Time 7:06 AM PDT 6:47 PM PDT
Civil Twilight 6:40 AM PDT 7:13 PM PDT
Nautical Twilight 6:09 AM PDT 7:43 PM PDT
Astronomical Twilight 5:39 AM PDT 8:13 PM PDT
Moon 12:29 AM PDT (10/4) 3:43 PM PDT (10/4)
Length of Visible Light 12h 33m
Length of Day
11h 41m
Waning Crescent, 36% of the Moon is Illuminated
Oct 4
Waning Crescent
Oct 10
New
Oct 19
First Quarter
Oct 25
Full
Nov 1
Last Quarter

Hourly Weather History & Observations

Time (PDT) Temp. Dew Point Humidity Pressure Visibility Wind Dir Wind Speed Gust Speed Precip Events Conditions
12:56 AM 55.0 °F 46.0 °F 72% 29.94 in 10.0 mi South 3.5 mph - N/A   Clear
1:56 AM 57.0 °F 45.0 °F 64% 29.94 in 10.0 mi WSW 3.5 mph - N/A   Clear
2:56 AM 57.0 °F 44.1 °F 62% 29.93 in 10.0 mi Variable 3.5 mph - N/A   Clear
3:56 AM 55.9 °F 44.1 °F 64% 29.93 in 10.0 mi WNW 4.6 mph - N/A   Clear
4:56 AM 55.9 °F 43.0 °F 62% 29.93 in 10.0 mi West 3.5 mph - N/A   Clear
5:56 AM 55.0 °F 43.0 °F 64% 29.92 in 10.0 mi WNW 4.6 mph - N/A   Clear
6:56 AM 55.9 °F 42.1 °F 60% 29.93 in 10.0 mi NNW 3.5 mph - N/A   Clear
7:56 AM 55.9 °F 45.0 °F 67% 29.95 in 10.0 mi Calm Calm - N/A   Clear
8:56 AM 59.0 °F 44.1 °F 58% 29.95 in 10.0 mi Calm Calm - N/A   Clear
9:56 AM 63.0 °F 43.0 °F 48% 29.95 in 10.0 mi NW 3.5 mph - N/A   Clear
10:56 AM 66.0 °F 39.0 °F 37% 29.94 in 10.0 mi WNW 9.2 mph 21.9 mph N/A   Clear
11:56 AM 66.9 °F 39.9 °F 37% 29.94 in 10.0 mi WNW 12.7 mph 21.9 mph N/A   Clear
12:56 PM 68.0 °F 37.9 °F 33% 29.93 in 10.0 mi WNW 8.1 mph - N/A   Clear
1:56 PM 66.9 °F 42.1 °F 40% 29.92 in 10.0 mi NW 11.5 mph 19.6 mph N/A   Scattered Clouds
2:56 PM 66.0 °F 42.1 °F 42% 29.91 in 10.0 mi West 12.7 mph 20.7 mph N/A   Partly Cloudy
3:56 PM 64.0 °F 41.0 °F 43% 29.90 in 10.0 mi WNW 12.7 mph 20.7 mph N/A   Scattered Clouds
4:56 PM 63.0 °F 41.0 °F 45% 29.90 in 10.0 mi West 15.0 mph 19.6 mph N/A   Scattered Clouds
5:56 PM 61.0 °F 43.0 °F 52% 29.89 in 10.0 mi WNW 5.8 mph - N/A   Scattered Clouds
6:56 PM 59.0 °F 43.0 °F 55% 29.89 in 10.0 mi WNW 5.8 mph - N/A   Scattered Clouds
7:56 PM 57.0 °F 45.0 °F 64% 29.91 in 10.0 mi WNW 5.8 mph - N/A   Clear
8:56 PM 55.9 °F 46.9 °F 72% 29.90 in 10.0 mi NNW 3.5 mph - N/A   Partly Cloudy
9:56 PM 55.9 °F 46.0 °F 69% 29.91 in 10.0 mi Calm Calm - N/A   Scattered Clouds
10:56 PM 55.0 °F 46.0 °F 72% 29.91 in 10.0 mi NW 3.5 mph - N/A   Mostly Cloudy
11:56 PM 55.0 °F 46.0 °F 72% 29.91 in 10.0 mi NW 6.9 mph - N/A   Overcast